Torna al catalogo

MOZ.5/SAFIR/RUBIN 5/SL-8

AttivoRadioamatoreSSO
NORAD 28898·PAYLOAD·🇩🇪 Germany

Lanciato Oct 27, 2005 da Plesetsk Cosmodrome

Loading…

Prossimi Passaggi (prossime 24 ore)

TLE

AggiornatoSource: Space-Track

Epoca: Sep 14, 2026, 08:14 UTC

1 28898U 05043G   26257.34349355  .00000399  00000-0  84637-4 0  9998
2 28898  98.3673  43.1274 0019464  63.7466 296.5733 14.64477961736303

Traccia MOZ.5/SAFIR/RUBIN 5/SL-8 in tempo reale con AllMySat

Download on the App Store